Location: L'Aquila
(42.3670°N, 13.3670°E)
Time: 08:53:54
(UTC+01:00)

ISS - Visible Passes

Search period start: 22 January 2019 00:00
Search period end: 01 February 2019 00:00
Orbit: 404 x 410 km, 51.6° (Epoch: 23 January)

Date Brightness Start Highest point End Pass type
(mag) Time Alt. Az. Time Alt. Az. Time Alt. Az.
22 Jan -1.6 17:53:50 10° SSE 17:55:37 14° SE 17:57:16 11° E visible
22 Jan -1.6 19:28:29 10° WSW 19:30:01 25° WSW 19:30:01 25° WSW visible
23 Jan -3.8 18:37:12 10° SW 18:40:27 62° SE 18:41:04 49° E visible
24 Jan -2.8 17:46:11 10° SSW 17:49:11 33° SE 17:52:02 11° ENE visible
24 Jan -1.9 19:22:37 10° W 19:24:46 29° WNW 19:24:46 29° WNW visible
25 Jan -3.4 18:31:00 10° WSW 18:34:15 56° NNW 18:35:39 29° NE visible
26 Jan -3.8 17:39:34 10° SW 17:42:51 83° SE 17:46:09 10° ENE visible
26 Jan -1.7 19:17:00 10° WNW 19:19:13 22° NNW 19:19:13 22° NNW visible
27 Jan -2.4 18:25:11 10° W 18:28:08 30° NNW 18:29:59 18° NNE visible
28 Jan -1.5 19:11:26 10° NW 19:13:25 17° NNW 19:13:25 17° NNW visible
29 Jan -1.8 18:19:32 10° WNW 18:22:07 20° NNW 18:24:07 13° NNE visible
30 Jan -1.5 19:05:39 10° NW 19:07:29 16° N 19:07:29 16° N visible
31 Jan -1.7 18:13:52 10° NW 18:16:07 17° N 18:18:09 11° NE visible
